STARLINK-30528, 57967

Orbit data source: Space-Track

STARLINK-30528, 57967 is a payload satellite owned by SpaceX/Seattle (US) in LEO that was launched on Sat, 30 Sep 2023 UTC via an FALCON 9 launch vehicle from the Air Force Eastern Test Range (AFETR). Payload-class satellites include a variety of spacecraft equipped with specific instruments for various scientific and technological missions. These include communications satellites like Starlink; space stations such as the ISS; scientific satellites like the Hubble; Earth observation satellites from companies like Planet Labs, Umbra, and HawkEye 360; GPS; miniature CubeSats for education and research; and military/defense satellites.

Loading next visibility...
Identifier
57967, 2023-151D
Orbit
LEO
Country
Flag of USUS
Related business
Manufacturer
SpaceX/Seattle
Mission
Operational Commercial Communications
Bus & Motor
STARLINK V2M, Unknown motor
Mass
730 kg wet, ~700 kg dry
Launch date (UTC)
2023-09-30 (3 years ago)
Launch vehicle
FALCON 9
Launch site
Air Force Eastern Test Range (AFETR)
Object type
Payload
Rocket body
Debris
Shape & HBR
Box + 2 Pan, 17.7 m
Radar Cross Section
33.884 m², Large (>1 m²)

Expand to show TLE details & history
Last TLE update: 21 hours ago

TLE from 21 hours ago
0 STARLINK-30528
1 57967U 23151D   26192.50056146  .00001233  00000-0  54299-4 0  9995
2 57967  43.0057 356.6201 0001607 172.2111 187.8766 15.27591989154703
Epoch: 2026-07-11T12:00Z
TLE epoch observation values (Epoch: 2026-07-11T12:00:48.510Z)
Latitude
Longitude
-112.99491°
Altitude
483.881 km
Speed
7.625 km/s
True Right ascension
23h 46m 28s
True Declination
0° 00' 00"
Sunlit
Object was in full shadow at epoch
Visualization orbit readout
Latitude
Unknown
Longitude
Unknown
Altitude
Unknown
Speed
Unknown
Apparent Right ascension
Unknown
Apparent Declination
Unknown
Sunlit
N/A
Visualization observer readout
Local Sidereal Time
21:14:51
Azimuth
Unknown
Elevation
Unknown
Doppler factor
Unknown
Orbital elements
Apogee altitude
486.06 km
Perigee altitude
483.855 km
Semi-major axis
6,863.094 km
Eccentricity
0.00016
Inclination
43.0057°
RAAN
356.6201°
Arg. of periapsis
172.2111°
True anomaly
187.87408°
Mean anomaly
187.8766°
Eccentric anomaly
187.87534°
Mean motion
3.81736 °/min
Orbital period
94.31 mins
BSTAR
0.000054299
Loading maneuver chart data...
Computing Atmospheric mass density...
Loading historical data...
Loading historical data...
Loading historical data...
Loading historical data...
Loading historical data...
Loading historical data...
Loading historical data...

Documentation

Showing up to 5 results
|